Time,TemperatureF,DewpointF,PressureIn,WindDirection,WindDirectionDegrees,WindSpeedMPH,WindSpeedGustMPH,Humidity,HourlyPrecipIn,Conditions,Clouds,dailyrainin,SolarRadiationWatts/m^2,SoftwareType,DateUTC
2013-09-22 00:04:00,68.8,65.0,29.73,SSW,213,5.0,12.0,88,0.00,,,0.00,0,weatherlink.com 1.10,2013-09-22 04:04:00,
2013-09-22 00:19:00,68.9,65.0,29.73,SSW,211,5.0,12.0,88,0.00,,,0.00,0,weatherlink.com 1.10,2013-09-22 04:19:00,
2013-09-22 00:34:00,69.0,65.0,29.72,SSW,203,5.0,12.0,88,0.00,,,0.00,0,weatherlink.com 1.10,2013-09-22 04:34:00,
2013-09-22 00:49:00,68.8,65.0,29.71,SSW,211,0.0,8.0,88,0.00,,,0.00,0,weatherlink.com 1.10,2013-09-22 04:49:00,
2013-09-22 01:05:00,68.7,65.0,29.71,South,182,6.0,12.0,89,0.00,,,0.00,0,weatherlink.com 1.10,2013-09-22 05:05:00,
2013-09-22 01:20:00,68.8,66.0,29.71,SSW,203,5.0,13.0,89,0.00,,,0.00,0,weatherlink.com 1.10,2013-09-22 05:20:00,
2013-09-22 01:35:00,68.9,66.0,29.69,SSE,160,3.0,12.0,89,0.00,,,0.00,0,weatherlink.com 1.10,2013-09-22 05:35:00,
2013-09-22 01:50:00,69.0,65.0,29.68,SE,140,2.0,14.0,88,0.00,,,0.00,0,weatherlink.com 1.10,2013-09-22 05:50:00,
2013-09-22 02:05:00,69.0,65.0,29.68,SSW,207,7.0,15.0,87,0.00,,,0.00,0,weatherlink.com 1.10,2013-09-22 06:05:00,
2013-09-22 02:20:00,69.1,65.0,29.67,SSE,161,4.0,14.0,87,0.00,,,0.00,0,weatherlink.com 1.10,2013-09-22 06:20:00,
2013-09-22 02:35:00,69.2,66.0,29.66,SW,223,4.0,16.0,88,0.00,,,0.00,0,weatherlink.com 1.10,2013-09-22 06:35:00,
2013-09-22 02:50:00,68.9,66.0,29.66,SSW,203,6.0,10.0,89,0.00,,,0.00,0,weatherlink.com 1.10,2013-09-22 06:50:00,
2013-09-22 03:05:00,68.8,66.0,29.65,South,188,3.0,11.0,89,0.00,,,0.00,0,weatherlink.com 1.10,2013-09-22 07:05:00,
2013-09-22 03:20:00,68.8,66.0,29.65,SSW,202,6.0,12.0,90,0.00,,,0.00,0,weatherlink.com 1.10,2013-09-22 07:20:00,
2013-09-22 03:35:00,69.0,66.0,29.64,SSE,167,7.0,16.0,90,0.00,,,0.00,0,weatherlink.com 1.10,2013-09-22 07:35:00,
2013-09-22 03:50:00,69.0,66.0,29.64,SSW,198,7.0,16.0,90,0.00,,,0.00,0,weatherlink.com 1.10,2013-09-22 07:50:00,
2013-09-22 04:05:00,69.1,66.0,29.63,SSW,198,3.0,14.0,90,0.00,,,0.00,0,weatherlink.com 1.10,2013-09-22 08:05:00,
2013-09-22 04:20:00,69.2,66.0,29.62,SSW,193,7.0,12.0,90,0.00,,,0.00,0,weatherlink.com 1.10,2013-09-22 08:20:00,
2013-09-22 04:35:00,69.3,66.0,29.62,SSW,196,6.0,16.0,89,0.00,,,0.00,0,weatherlink.com 1.10,2013-09-22 08:35:00,
2013-09-22 04:50:00,69.5,66.0,29.61,South,186,4.0,16.0,89,0.00,,,0.00,0,weatherlink.com 1.10,2013-09-22 08:50:00,
2013-09-22 05:05:00,69.6,66.0,29.61,SSW,210,10.0,15.0,88,0.00,,,0.00,0,weatherlink.com 1.10,2013-09-22 09:05:00,
2013-09-22 05:20:00,69.7,66.0,29.62,SSW,212,12.0,14.0,87,0.00,,,0.00,0,weatherlink.com 1.10,2013-09-22 09:20:00,
2013-09-22 05:35:00,69.7,66.0,29.62,SW,235,15.0,16.0,87,0.00,,,0.00,0,weatherlink.com 1.10,2013-09-22 09:35:00,
2013-09-22 05:50:00,69.5,66.0,29.62,SSW,200,9.0,13.0,87,0.00,,,0.00,0,weatherlink.com 1.10,2013-09-22 09:50:00,
2013-09-22 06:05:00,69.5,66.0,29.63,WSW,246,9.0,15.0,89,0.01,,,0.01,0,weatherlink.com 1.10,2013-09-22 10:05:00,
2013-09-22 06:20:00,69.3,67.0,29.62,WSW,248,18.0,23.0,91,0.04,,,0.04,0,weatherlink.com 1.10,2013-09-22 10:20:00,
2013-09-22 06:35:00,67.9,65.0,29.63,WSW,254,15.0,15.0,91,0.07,,,0.07,0,weatherlink.com 1.10,2013-09-22 10:35:00,
2013-09-22 06:50:00,67.1,65.0,29.65,West,268,2.0,13.0,92,0.12,,,0.12,0,weatherlink.com 1.10,2013-09-22 10:50:00,
2013-09-22 07:05:00,64.9,62.0,29.65,West,281,3.0,12.0,91,0.15,,,0.16,0,weatherlink.com 1.10,2013-09-22 11:05:00,
2013-09-22 07:20:00,63.8,62.0,29.65,West,281,4.0,9.0,93,0.16,,,0.20,11,weatherlink.com 1.10,2013-09-22 11:20:00,
2013-09-22 07:35:00,63.7,62.0,29.66,West,265,4.0,7.0,94,0.14,,,0.21,11,weatherlink.com 1.10,2013-09-22 11:35:00,
2013-09-22 07:50:00,63.4,62.0,29.66,WNW,284,5.0,10.0,94,0.10,,,0.22,18,weatherlink.com 1.10,2013-09-22 11:50:00,
2013-09-22 08:05:00,63.0,61.0,29.66,WNW,282,6.0,9.0,94,0.06,,,0.22,19,weatherlink.com 1.10,2013-09-22 12:05:00,
2013-09-22 08:20:00,62.7,61.0,29.66,WNW,286,3.0,9.0,94,0.04,,,0.24,35,weatherlink.com 1.10,2013-09-22 12:20:00,
2013-09-22 08:35:00,62.6,61.0,29.66,West,279,4.0,8.0,94,0.03,,,0.24,47,weatherlink.com 1.10,2013-09-22 12:35:00,
2013-09-22 08:50:00,62.6,61.0,29.67,West,279,0.0,0.0,94,0.02,,,0.24,40,weatherlink.com 1.10,2013-09-22 12:50:00,
2013-09-22 09:06:00,63.0,62.0,29.66,West,279,3.0,6.0,95,0.01,,,0.24,113,weatherlink.com 1.10,2013-09-22 13:06:00,
2013-09-22 09:21:00,63.2,62.0,29.66,WNW,290,2.0,9.0,94,0.00,,,0.24,104,weatherlink.com 1.10,2013-09-22 13:21:00,
2013-09-22 09:36:00,63.1,61.0,29.67,WNW,286,5.0,8.0,94,0.00,,,0.24,105,weatherlink.com 1.10,2013-09-22 13:36:00,
2013-09-22 09:51:00,63.3,62.0,29.67,WNW,285,4.0,8.0,94,0.00,,,0.24,137,weatherlink.com 1.10,2013-09-22 13:51:00,
2013-09-22 10:06:00,63.8,62.0,29.66,WNW,283,0.0,8.0,94,0.00,,,0.24,134,weatherlink.com 1.10,2013-09-22 14:06:00,
2013-09-22 10:21:00,63.9,62.0,29.66,West,278,7.0,11.0,93,0.00,,,0.24,95,weatherlink.com 1.10,2013-09-22 14:21:00,
2013-09-22 10:36:00,64.0,62.0,29.67,West,273,8.0,10.0,93,0.00,,,0.24,98,weatherlink.com 1.10,2013-09-22 14:36:00,
2013-09-22 10:51:00,64.4,62.0,29.67,West,277,7.0,12.0,92,0.00,,,0.24,207,weatherlink.com 1.10,2013-09-22 14:51:00,
2013-09-22 11:06:00,64.1,61.0,29.67,WNW,291,5.0,14.0,88,0.00,,,0.24,183,weatherlink.com 1.10,2013-09-22 15:06:00,
2013-09-22 11:21:00,64.2,60.0,29.67,West,263,8.0,10.0,85,0.00,,,0.24,169,weatherlink.com 1.10,2013-09-22 15:21:00,
2013-09-22 11:36:00,64.6,60.0,29.67,West,275,6.0,10.0,84,0.00,,,0.24,225,weatherlink.com 1.10,2013-09-22 15:36:00,
2013-09-22 11:51:00,65.3,60.0,29.67,WNW,284,3.0,9.0,83,0.00,,,0.24,197,weatherlink.com 1.10,2013-09-22 15:51:00,
2013-09-22 12:07:00,65.8,60.0,29.67,WNW,286,7.0,10.0,81,0.00,,,0.24,172,weatherlink.com 1.10,2013-09-22 16:07:00,
2013-09-22 12:21:00,65.9,59.0,29.67,WNW,284,6.0,9.0,79,0.00,,,0.24,292,weatherlink.com 1.10,2013-09-22 16:21:00,
2013-09-22 12:36:00,67.3,58.0,29.67,West,276,6.0,10.0,72,0.00,,,0.24,292,weatherlink.com 1.10,2013-09-22 16:36:00,
2013-09-22 12:51:00,68.0,59.0,29.66,WNW,294,5.0,10.0,72,0.00,,,0.24,44,weatherlink.com 1.10,2013-09-22 16:51:00,
2013-09-22 13:06:00,69.1,59.0,29.66,West,268,9.0,12.0,71,0.00,,,0.24,46,weatherlink.com 1.10,2013-09-22 17:06:00,
2013-09-22 13:21:00,69.8,59.0,29.65,West,265,4.0,13.0,69,0.00,,,0.24,86,weatherlink.com 1.10,2013-09-22 17:21:00,
2013-09-22 13:36:00,70.4,58.0,29.65,WNW,288,0.0,12.0,65,0.00,,,0.24,715,weatherlink.com 1.10,2013-09-22 17:36:00,
2013-09-22 13:51:00,71.3,59.0,29.65,West,269,9.0,16.0,66,0.00,,,0.24,366,weatherlink.com 1.10,2013-09-22 17:51:00,
2013-09-22 14:06:00,72.3,57.0,29.65,West,280,10.0,18.0,59,0.00,,,0.24,193,weatherlink.com 1.10,2013-09-22 18:06:00,
2013-09-22 14:21:00,72.0,57.0,29.65,WSW,255,3.0,22.0,59,0.00,,,0.24,72,weatherlink.com 1.10,2013-09-22 18:21:00,
2013-09-22 14:36:00,71.9,57.0,29.65,WSW,255,7.0,15.0,60,0.00,,,0.24,72,weatherlink.com 1.10,2013-09-22 18:36:00,
2013-09-22 14:51:00,72.2,56.0,29.65,WNW,301,10.0,17.0,58,0.00,,,0.24,88,weatherlink.com 1.10,2013-09-22 18:51:00,
2013-09-22 15:06:00,72.1,55.0,29.65,West,261,7.0,18.0,56,0.00,,,0.24,121,weatherlink.com 1.10,2013-09-22 19:06:00,
2013-09-22 15:21:00,72.1,56.0,29.66,West,264,8.0,15.0,57,0.00,,,0.24,121,weatherlink.com 1.10,2013-09-22 19:21:00,
2013-09-22 15:36:00,71.9,56.0,29.66,West,261,0.0,16.0,57,0.00,,,0.24,93,weatherlink.com 1.10,2013-09-22 19:36:00,
2013-09-22 15:51:00,71.4,55.0,29.66,West,267,8.0,18.0,56,0.00,,,0.24,56,weatherlink.com 1.10,2013-09-22 19:51:00,
2013-09-22 16:06:00,70.4,54.0,29.67,West,281,8.0,19.0,56,0.00,,,0.24,56,weatherlink.com 1.10,2013-09-22 20:06:00,
2013-09-22 16:21:00,70.1,54.0,29.67,WSW,248,6.0,17.0,56,0.00,,,0.24,28,weatherlink.com 1.10,2013-09-22 20:21:00,
2013-09-22 16:36:00,69.5,52.0,29.67,West,266,10.0,15.0,54,0.00,,,0.24,21,weatherlink.com 1.10,2013-09-22 20:36:00,
2013-09-22 16:51:00,69.0,52.0,29.67,WNW,291,12.0,18.0,55,0.00,,,0.24,23,weatherlink.com 1.10,2013-09-22 20:51:00,
2013-09-22 17:06:00,68.5,52.0,29.67,WNW,290,6.0,14.0,55,0.00,,,0.24,23,weatherlink.com 1.10,2013-09-22 21:06:00,
2013-09-22 17:21:00,68.2,51.0,29.68,West,268,6.0,15.0,55,0.00,,,0.24,21,weatherlink.com 1.10,2013-09-22 21:21:00,
2013-09-22 17:36:00,68.0,51.0,29.68,West,280,7.0,14.0,54,0.00,,,0.24,21,weatherlink.com 1.10,2013-09-22 21:36:00,
2013-09-22 17:51:00,67.5,51.0,29.68,West,273,4.0,14.0,56,0.00,,,0.24,19,weatherlink.com 1.10,2013-09-22 21:51:00,
2013-09-22 18:06:00,66.9,51.0,29.69,West,281,9.0,13.0,57,0.00,,,0.24,14,weatherlink.com 1.10,2013-09-22 22:06:00,
2013-09-22 18:21:00,66.3,51.0,29.69,WNW,290,4.0,12.0,59,0.00,,,0.24,7,weatherlink.com 1.10,2013-09-22 22:21:00,
2013-09-22 18:36:00,65.7,52.0,29.70,West,277,7.0,13.0,61,0.00,,,0.24,0,weatherlink.com 1.10,2013-09-22 22:36:00,
2013-09-22 18:51:00,65.2,52.0,29.71,WNW,284,14.0,20.0,62,0.00,,,0.24,0,weatherlink.com 1.10,2013-09-22 22:51:00,
2013-09-22 19:06:00,64.7,51.0,29.71,West,267,7.0,19.0,62,0.00,,,0.24,0,weatherlink.com 1.10,2013-09-22 23:06:00,
2013-09-22 19:21:00,64.3,51.0,29.72,NW,310,9.0,16.0,62,0.00,,,0.24,0,weatherlink.com 1.10,2013-09-22 23:21:00,
2013-09-22 19:36:00,63.7,51.0,29.73,WNW,300,6.0,17.0,63,0.00,,,0.24,0,weatherlink.com 1.10,2013-09-22 23:36:00,
2013-09-22 19:51:00,63.2,51.0,29.74,NW,313,9.0,17.0,64,0.00,,,0.24,0,weatherlink.com 1.10,2013-09-22 23:51:00,
2013-09-22 20:06:00,62.6,51.0,29.75,WNW,296,7.0,13.0,65,0.00,,,0.24,0,weatherlink.com 1.10,2013-09-23 00:06:00,
2013-09-22 20:22:00,61.9,51.0,29.76,NW,311,2.0,11.0,67,0.00,,,0.24,0,weatherlink.com 1.10,2013-09-23 00:22:00,
2013-09-22 20:37:00,61.5,51.0,29.77,NNW,330,5.0,14.0,69,0.00,,,0.24,0,weatherlink.com 1.10,2013-09-23 00:37:00,
2013-09-22 20:52:00,60.9,51.0,29.77,NW,325,14.0,16.0,69,0.00,,,0.24,0,weatherlink.com 1.10,2013-09-23 00:52:00,
2013-09-22 21:07:00,60.3,50.0,29.77,NW,311,11.0,15.0,70,0.00,,,0.24,0,weatherlink.com 1.10,2013-09-23 01:07:00,
2013-09-22 21:22:00,59.8,50.0,29.78,NW,309,4.0,18.0,71,0.00,,,0.24,0,weatherlink.com 1.10,2013-09-23 01:22:00,
2013-09-22 21:37:00,59.3,50.0,29.79,NW,315,10.0,15.0,71,0.00,,,0.24,0,weatherlink.com 1.10,2013-09-23 01:37:00,
2013-09-22 21:52:00,58.7,49.0,29.79,NNW,332,13.0,18.0,71,0.00,,,0.24,0,weatherlink.com 1.10,2013-09-23 01:52:00,
2013-09-22 22:07:00,58.2,49.0,29.79,NW,315,2.0,16.0,71,0.00,,,0.24,0,weatherlink.com 1.10,2013-09-23 02:07:00,
2013-09-22 22:22:00,57.7,48.0,29.80,WNW,294,2.0,11.0,71,0.00,,,0.24,0,weatherlink.com 1.10,2013-09-23 02:22:00,
2013-09-22 22:37:00,57.3,48.0,29.80,NW,313,1.0,11.0,72,0.00,,,0.24,0,weatherlink.com 1.10,2013-09-23 02:37:00,
2013-09-22 22:52:00,57.0,48.0,29.80,NW,307,4.0,14.0,73,0.00,,,0.24,0,weatherlink.com 1.10,2013-09-23 02:52:00,
2013-09-22 23:07:00,56.7,48.0,29.80,WNW,298,7.0,14.0,73,0.00,,,0.24,0,weatherlink.com 1.10,2013-09-23 03:07:00,
2013-09-22 23:22:00,56.4,48.0,29.81,NW,320,6.0,15.0,74,0.00,,,0.24,0,weatherlink.com 1.10,2013-09-23 03:22:00,
2013-09-22 23:37:00,56.2,48.0,29.82,NW,322,7.0,15.0,73,0.00,,,0.24,0,weatherlink.com 1.10,2013-09-23 03:37:00,
2013-09-22 23:52:00,55.9,47.0,29.82,NW,319,10.0,15.0,71,0.00,,,0.24,0,weatherlink.com 1.10,2013-09-23 03:52:00,